Regional Weather Roundup
Issued by NWS

Home | Current Version | Previous Version | Graphics & Text | Print | Product List | Glossary On
Versions: 1 2 3 4 5 6 7 8 9 10 11 12 13 14 15 16 17 18 19 20 21 22 23 24 25 26 27 28 29 30 31 32 33 34 35 36 37 38 39 40 41 42 43 44 45 46 47 48 49 50
000
ASUS45 KABQ 292201
RWRNM
WEATHER ROUNDUP FOR NEW MEXICO
NATIONAL WEATHER SERVICE ALBUQUERQUE NM
400 PM MDT FRI AUG 29 2014

NOTE: "FAIR" MEANS FEW OR NO CLOUDS BELOW 12,000 FEET AGL WITH NO
       SIGNIFICANT WEATHER OR OBSTRUCTIONS TO VISION.

      THIS PRODUCT IS RELEASED AS TWO VERSIONS.  ONE VERSION NEAR
      THE TOP OF THE HOUR CONTAINING PRELIMINARY DATA FROM ALBUQUERQUE
      AND OTHER STATIONS.  A FINAL VERSION WITH ADDITIONAL DATA IS
      ISSUED ABOUT 10 MINUTES AFTER THE HOUR.

NMZ501-503-504-510>518-292300-
NORTHWEST PLATEAU/NORTHCENTRAL MOUNTAINS

CITY           SKY/WX    TMP DP  RH WIND       PRES   REMARKS
FARMINGTON     SUNNY     83  36  18 W10G17    30.10F
LOS ALAMOS     MOSUNNY   73  39  28 CALM      30.23F
SANTA FE       SUNNY     79  37  22 SE10      30.16F
ANGEL FIRE     FAIR      70  33  25 W6        30.29F

$$
NMZ402-403-502-505>509-292300-
WESTCENTRAL MOUNTAINS/SOUTHWEST MOUNTAINS

CITY           SKY/WX    TMP DP  RH WIND       PRES   REMARKS
GALLUP         SUNNY     82  34  17 NE7       30.17F
SILVER CITY    SUNNY     86  37  17 S6G21     30.10F

$$
NMZ407-409-411-412-292300-
SOUTHERN DESERTS

CITY           SKY/WX    TMP DP  RH WIND       PRES   REMARKS
LORDSBURG      FAIR      91  41  17 SW5       29.99F
DEMING         SUNNY     92  37  14 S6        29.98F
LAS CRUCES     SUNNY     92  39  16 NE8       30.02F
HOLLOMAN AFB   SUNNY     92  41  17 W10       29.97F
ALAMOGORDO     SUNNY     91  39  16 W15       30.00F
T OR C         SUNNY     89  41  18 NE12      30.04F

$$
NMZ519>523-292300-
CENTRAL VALLEYS/CENTRAL HIGHLANDS

CITY           SKY/WX    TMP DP  RH WIND       PRES   REMARKS
ALBUQUERQUE    MOSUNNY   84  38  19 VRB5      30.11F
CLINES CORNERS PTSUNNY   76  41  28 W13       30.21F
BELEN          FAIR      84  38  19 W5        30.09F
SOCORRO        FAIR      86  40  20 E6        30.07F

$$
NMZ524>526-539-540-292300-
SOUTHCENTRAL MOUNTAINS

CITY           SKY/WX    TMP DP  RH WIND       PRES   REMARKS
RUIDOSO        NOT AVBL

$$
NMZ527>531-292300-
NORTHEAST HIGHLANDS/NORTHEAST PLAINS

CITY           SKY/WX    TMP DP  RH WIND       PRES   REMARKS
LAS VEGAS      SUNNY     78  41  26 S14       30.19F
RATON          MOSUNNY   78  31  17 VRB3      30.14F
CLAYTON        MOSUNNY   86  38  18 VRB3      30.06F

$$
NMZ532>537-292300-
EASTCENTRAL PLAINS

CITY           SKY/WX    TMP DP  RH WIND       PRES   REMARKS
TUCUMCARI      SUNNY     90  37  15 VRB3      30.00F
CANNON AFB     SUNNY     88  39  17 N1        30.02F
CLOVIS AIRPORT   N/A     88  36  15 SW3       30.04F

$$
NMZ028-029-538-292300-
SOUTHEAST PLAINS

CITY           SKY/WX    TMP DP  RH WIND       PRES   REMARKS
ROSWELL        SUNNY     91  52  26 E8        29.98F
CARLSBAD       SUNNY     93  46  19 VRB5      29.93F
HOBBS          MOSUNNY   86  54  32 CALM      29.98F


$$


USA.gov is the U.S. government's official web portal to all federal, state and local government web resources and services.